EW2785 Weather Reports


Display with metric or nautical units.
time (UTC)temp
F
wind
direction
speed
MPH
gust
MPH
rain 1hr
in
rain 24hr
in
rain mn
in
humidity
%
barometer
mb
20260503234531 49 284 0.0 1.0 0.00 0.00 0.00 46 1008.1
20260503233036 49 272 0.0 4.0 0.00 0.00 0.00 44 1008.0
20260503231529 50 229 0.0 4.0 0.00 0.00 0.00 42 1007.9
20260503230029 50 244 0.0 7.0 0.00 0.00 0.00 43 1007.8
20260503224528 50 164 0.0 6.0 0.00 0.00 0.00 44 1007.8
20260503223028 50 217 2.0 8.0 0.00 0.00 0.00 43 1007.9
20260503221527 50 257 1.0 6.0 0.00 0.00 0.00 45 1007.9
20260503220027 50 305 1.0 6.0 0.00 0.00 0.00 45 1008.0
20260503214525 50 258 0.0 6.0 0.00 0.00 0.00 45 1007.8
20260503213025 50 283 0.0 4.0 0.00 0.00 0.00 47 1007.9
20260503211532 50 284 1.0 4.0 0.00 0.00 0.00 46 1007.9
20260503210024 50 182 0.0 6.0 0.00 0.00 0.00 48 1007.9
20260503204522 50 180 2.0 5.0 0.00 0.00 0.00 46 1007.9
20260503203022 50 201 0.0 5.0 0.00 0.00 0.00 46 1008.0
20260503201520 50 185 0.0 6.0 0.00 0.00 0.00 46 1008.1
20260503200020 50 178 1.0 8.0 0.00 0.00 0.00 48 1008.2
20260503194518 48 229 1.0 5.0 0.00 0.00 0.00 48 1008.3
20260503193015 49 244 1.0 8.0 0.00 0.00 0.00 49 1008.5
20260503191514 49 313 1.0 6.0 0.00 0.00 0.00 48 1008.6
20260503190034 49 262 2.0 10.0 0.00 0.01 0.00 48 1008.7
20260503184513 48 245 1.0 10.0 0.00 0.01 0.00 48 1008.8
20260503183016 48 233 3.0 9.0 0.00 0.01 0.00 52 1008.8
20260503181511 48 290 3.0 10.0 0.00 0.01 0.00 48 1008.9
20260503180013 48 290 2.0 9.0 0.00 0.01 0.00 50 1008.9
20260503174512 47 164 1.0 11.0 0.00 0.01 0.00 50 1008.9
20260503173010 46 243 4.0 12.0 0.00 0.01 0.00 51 1009.0
20260503171511 47 263 3.0 12.0 0.00 0.01 0.00 49 1009.1
20260503150112 48 263 3.0 14.0 0.00 0.01 0.00 53 1009.2
20260503081512 36 325 0.0 0.0 0.00 0.07 0.00 92 1010.4
20260503071511 36 325 0.0 0.0 0.00 0.09 0.00 92 1010.6
20260503060106 35 325 0.0 0.0 0.00 0.10 0.00 91 1011.1
20260503054557 35 325 0.0 0.0 0.00 0.10 0.00 91 1011.2
20260503053057 35 325 0.0 0.0 0.00 0.10 0.00 91 1011.3
20260503051558 35 325 0.0 0.0 0.00 0.10 0.00 90 1011.4
20260503050050 34 325 0.0 0.0 0.00 0.10 0.00 90 1011.5
20260503044550 34 325 0.0 0.0 0.00 0.10 0.00 90 1011.6
20260503043051 34 325 0.0 0.0 0.00 0.10 0.00 89 1011.8
20260503041546 34 325 0.0 0.0 0.00 0.10 0.00 89 1011.8
20260503040044 34 325 0.0 0.0 0.00 0.10 0.10 89 1012.0
20260503034543 34 325 0.0 0.0 0.00 0.10 0.10 88 1012.0
20260503033046 35 325 0.0 1.0 0.00 0.10 0.10 87 1012.0
20260503031539 35 325 0.0 0.0 0.00 0.10 0.10 87 1012.0
20260503030037 36 325 0.0 0.0 0.00 0.10 0.10 87 1012.0
20260503024537 37 325 0.0 0.0 0.00 0.10 0.10 86 1012.0
20260503023033 37 325 0.0 0.0 0.00 0.10 0.10 86 1012.2
20260503021530 38 325 0.0 0.0 0.00 0.10 0.10 86 1012.2
20260503020027 39 325 0.0 0.0 0.00 0.10 0.10 85 1012.3
20260503014538 40 325 0.0 0.0 0.00 0.10 0.10 86 1012.4
20260503013023 40 325 0.0 0.0 0.00 0.10 0.10 86 1012.4
20260503011522 41 325 0.0 2.0 0.00 0.10 0.10 86 1012.5
20260503010021 41 261 0.0 0.0 0.00 0.10 0.10 85 1012.3
20260503004525 42 261 0.0 0.0 0.00 0.10 0.10 85 1012.2
20260503003016 42 261 0.0 0.0 0.00 0.10 0.10 85 1012.0
20260503001513 42 261 1.0 2.0 0.00 0.10 0.10 85 1012.0
20260503000011 43 310 0.0 4.0 0.00 0.10 0.10 85 1011.8